Etusivu
METAR-TAF:

METAR-TAF

Lentoasemat :

Glencoe Municipal Airport (Vernon Perschau Field)

Glencoe, Minnesota, Yhdysvallat

Leveyspiiri: 44-45-22N, Pituuspiiri: 094-04-52W, korkeus merenpinnasta: 302 m

Tämänhetkinen sää

Tämä raportti tehtiin 32 minuuttia sitten, kello 11.59 UTC
Tuuli 3 kn pohjoisen/luoteesta
Lämpötila -9°C
Kosteus 92%
Ilmanpaine 1015 hPa
Näkyvyys: 11.3 km
selkeää

METAR: KGYL 241159Z AUTO 34003KT 7SM CLR M09/M10 A2998 RMK AO2

Aika: 06:31 (12:31 UTC)


TAF: puuttuu

Säähavainnot ja -ennusteet yli 4000 lentoasemalta (METAR- ja TAF-raportit).

Käytössä olevat sääasemat on merkitty karttaan keltaisilla ja punaisilla pisteillä.

Aseta hiiri pisteen päälle nähdäksesi sääaseman nimen.

Klikkaa sitten nähdäksesi säähavainnot ja -ennusteet.

Kartan vaihtaminen: klikkaa mustalla rastilla varustettuja vihreitä pisteitä, niin voit zoomata sisään; viivalla varustettua vihreää pistettä, niin voit zoomata ulos tai vihreitä nuolia, niin pääset viereisille kartoille.


METAR-TAF: